,,,PA_Meas_PMT16A,,PR_Meas_QMR101_102,,RH_Meas_QMH101,,SR_Meas_QMS101,,TA_Meas_QMH101,,GenWind,,GenWind,
date,time,status,PA,status,PR,status,RH,status,SR,status,TA,status,DirAvg,status,SpdAvg,
2012-01-17, 00:00:04,VALID,999.028,VALID,0,VALID,92.5397,VALID,0,VALID,24.2281,VALID,54,VALID,0,
2012-01-17, 00:01:04,VALID,998.986,VALID,0,VALID,92.532,VALID,0,VALID,24.2086,VALID,54,VALID,0.153516,
2012-01-17, 00:02:04,VALID,998.988,VALID,0,VALID,92.532,VALID,0,VALID,24.1872,VALID,54,VALID,0.451172,
2012-01-17, 00:03:04,VALID,998.936,VALID,0,VALID,92.5397,VALID,0,VALID,24.1891,VALID,54,VALID,0.619141,
2012-01-17, 00:04:04,VALID,998.946,VALID,0,VALID,92.5244,VALID,0,VALID,24.15,VALID,54,VALID,0.543359,
2012-01-17, 00:05:04,VALID,998.943,VALID,0,VALID,92.5397,VALID,0,VALID,24.15,VALID,54,VALID,0.498437,
2012-01-17, 00:06:04,VALID,998.906,VALID,0,VALID,92.5931,VALID,0,VALID,24.1092,VALID,54,VALID,0.583203,
2012-01-17, 00:07:04,VALID,998.913,VALID,0,VALID,92.6923,VALID,0,VALID,24.1092,VALID,54,VALID,0.600781,
2012-01-17, 00:08:04,VALID,998.909,VALID,0,VALID,92.6694,VALID,0,VALID,24.1092,VALID,47,VALID,0.838672,
2012-01-17, 00:09:04,VALID,998.896,VALID,0,VALID,92.6312,VALID,0,VALID,24.0701,VALID,42,VALID,0.685938,
2012-01-17, 00:10:04,VALID,998.885,VALID,0,VALID,92.5778,VALID,0,VALID,24.0701,VALID,42,VALID,0.731641,
2012-01-17, 00:11:04,VALID,998.871,VALID,0,VALID,92.5778,VALID,0,VALID,24.0116,VALID,42,VALID,0.624609,
2012-01-17, 00:12:04,VALID,998.85,VALID,0,VALID,92.5778,VALID,0,VALID,24.0134,VALID,42,VALID,0.601563,
2012-01-17, 00:13:04,VALID,998.817,VALID,0,VALID,92.6083,VALID,0,VALID,23.9939,VALID,42,VALID,0.681641,
2012-01-17, 00:14:04,VALID,998.82,VALID,0,VALID,92.6846,VALID,0,VALID,23.9531,VALID,42,VALID,0.6625,
2012-01-17, 00:15:04,VALID,998.825,VALID,0,VALID,92.7685,VALID,0,VALID,23.9336,VALID,42,VALID,0.683594,
2012-01-17, 00:16:04,VALID,998.813,VALID,0,VALID,92.8372,VALID,0,VALID,23.914,VALID,42,VALID,0.716406,
2012-01-17, 00:17:04,VALID,998.788,VALID,0,VALID,92.883,VALID,0,VALID,23.9159,VALID,42,VALID,0.56875,
2012-01-17, 00:18:04,VALID,998.791,VALID,0,VALID,92.9593,VALID,0,VALID,23.9159,VALID,42,VALID,0.552344,
2012-01-17, 00:19:04,VALID,998.78,VALID,0,VALID,93.0585,VALID,0,VALID,23.9159,VALID,42,VALID,0.491797,
2012-01-17, 00:20:04,VALID,998.748,VALID,0,VALID,93.1195,VALID,0,VALID,23.914,VALID,42,VALID,0.462109,
2012-01-17, 00:21:04,VALID,998.745,VALID,0,VALID,93.1424,VALID,0,VALID,23.9354,VALID,42,VALID,0.390625,
2012-01-17, 00:22:04,VALID,998.727,VALID,0,VALID,93.1348,VALID,0,VALID,23.8945,VALID,42,VALID,0.372656,
2012-01-17, 00:23:04,VALID,998.726,VALID,0,VALID,93.0966,VALID,0,VALID,23.8945,VALID,42,VALID,0.387109,
2012-01-17, 00:24:04,VALID,998.716,VALID,0,VALID,93.0966,VALID,0,VALID,23.875,VALID,42,VALID,0.446875,
2012-01-17, 00:25:04,VALID,998.716,VALID,0,VALID,93.1729,VALID,0,VALID,23.875,VALID,42,VALID,0.482422,
2012-01-17, 00:26:04,VALID,998.682,VALID,0,VALID,93.234,VALID,0,VALID,23.8945,VALID,42,VALID,0.536328,
2012-01-17, 00:27:04,VALID,998.657,VALID,0,VALID,93.2568,VALID,0,VALID,23.8963,VALID,42,VALID,0.519531,
2012-01-17, 00:28:04,VALID,998.64,VALID,0,VALID,93.2797,VALID,0,VALID,23.8945,VALID,42,VALID,0.507031,
2012-01-17, 00:29:04,VALID,998.635,VALID,0,VALID,93.2874,VALID,0.104696,VALID,23.914,VALID,42,VALID,0.526563,
2012-01-17, 00:30:04,VALID,998.633,VALID,0,VALID,93.2797,VALID,0,VALID,23.914,VALID,42,VALID,0.444531,
2012-01-17, 00:31:04,VALID,998.624,VALID,0,VALID,93.2492,VALID,0,VALID,23.9354,VALID,42,VALID,0.413281,
2012-01-17, 00:32:04,VALID,998.559,VALID,0,VALID,93.2111,VALID,0,VALID,23.9354,VALID,42,VALID,0.445703,
2012-01-17, 00:33:04,VALID,998.58,VALID,0,VALID,93.1882,VALID,0,VALID,23.9177,VALID,42,VALID,0.566797,
2012-01-17, 00:34:04,VALID,998.555,VALID,0,VALID,93.1424,VALID,0,VALID,23.9177,VALID,42,VALID,0.604688,
2012-01-17, 00:35:04,VALID,998.551,VALID,0,VALID,93.1348,VALID,0,VALID,23.8982,VALID,42,VALID,0.460938,
2012-01-17, 00:36:04,VALID,998.5,VALID,0,VALID,93.1882,VALID,0,VALID,23.8982,VALID,42,VALID,0.679688,
2012-01-17, 00:37:04,VALID,998.468,VALID,0,VALID,93.234,VALID,0,VALID,23.8982,VALID,42,VALID,0.734766,
2012-01-17, 00:38:04,VALID,998.467,VALID,0,VALID,93.2187,VALID,0,VALID,23.8768,VALID,42,VALID,0.674219,
2012-01-17, 00:39:04,VALID,998.462,VALID,0,VALID,93.1958,VALID,0,VALID,23.8573,VALID,42,VALID,0.423828,
2012-01-17, 00:40:04,VALID,998.459,VALID,0,VALID,93.2111,VALID,0,VALID,23.8786,VALID,36,VALID,0.703906,
2012-01-17, 00:41:04,VALID,998.413,VALID,0,VALID,93.2645,VALID,0,VALID,23.8982,VALID,359,VALID,0.94375,
2012-01-17, 00:42:04,VALID,998.405,VALID,0,VALID,93.2797,VALID,0,VALID,23.9177,VALID,359,VALID,0.801953,
2012-01-17, 00:43:04,VALID,998.356,VALID,0,VALID,93.295,VALID,0,VALID,23.8963,VALID,359,VALID,0.709766,
2012-01-17, 00:44:04,VALID,998.354,VALID,0,VALID,93.3179,VALID,0,VALID,23.9372,VALID,5,VALID,0.765625,
2012-01-17, 00:45:04,VALID,998.313,VALID,0,VALID,93.356,VALID,0,VALID,23.9372,VALID,31,VALID,0.867188,
2012-01-17, 00:46:04,VALID,998.274,VALID,0,VALID,93.3789,VALID,0,VALID,23.9567,VALID,46,VALID,0.899219,
2012-01-17, 00:47:04,VALID,998.246,VALID,0,VALID,93.3408,VALID,0,VALID,23.9585,VALID,52,VALID,1.05273,
2012-01-17, 00:48:04,VALID,998.201,VALID,0,VALID,93.3255,VALID,0,VALID,23.9159,VALID,54,VALID,0.815625,
2012-01-17, 00:49:04,VALID,998.168,VALID,0,VALID,93.3713,VALID,0,VALID,23.9354,VALID,69,VALID,1.14531,
2012-01-17, 00:50:04,VALID,998.162,VALID,0,VALID,93.3713,VALID,0,VALID,23.9744,VALID,69,VALID,0.890234,
2012-01-17, 00:51:04,VALID,998.155,VALID,0,VALID,93.3484,VALID,0,VALID,23.9744,VALID,56,VALID,0.753906,
2012-01-17, 00:52:04,VALID,998.148,VALID,0,VALID,93.2416,VALID,0,VALID,23.9744,VALID,2,VALID,0.727734,
2012-01-17, 00:53:04,VALID,998.138,VALID,0,VALID,93.1958,VALID,0,VALID,23.9744,VALID,2,VALID,0.883203,
2012-01-17, 00:54:04,VALID,998.148,VALID,0,VALID,93.1958,VALID,0,VALID,23.9531,VALID,348,VALID,0.860937,
2012-01-17, 00:55:04,VALID,998.115,VALID,0,VALID,93.2111,VALID,0,VALID,23.9531,VALID,350,VALID,0.942578,
2012-01-17, 00:56:04,VALID,998.116,VALID,0,VALID,93.2492,VALID,0,VALID,23.9939,VALID,6,VALID,1.15508,
2012-01-17, 00:57:04,VALID,998.101,VALID,0,VALID,93.2416,VALID,0,VALID,23.9939,VALID,11,VALID,1.03672,
2012-01-17, 00:58:04,VALID,998.05,VALID,0,VALID,93.2263,VALID,0,VALID,23.9939,VALID,11,VALID,1.06992,
2012-01-17, 00:59:04,VALID,998.057,VALID,0,VALID,93.234,VALID,0,VALID,23.9726,VALID,26,VALID,0.894141,
2012-01-17, 01:00:04,VALID,998.036,VALID,0,VALID,93.1958,VALID,0,VALID,23.9549,VALID,39,VALID,0.776563,
2012-01-17, 01:01:04,VALID,997.983,VALID,0,VALID,93.234,VALID,0,VALID,23.9336,VALID,47,VALID,0.756641,
2012-01-17, 01:02:04,VALID,997.959,VALID,0,VALID,93.2263,VALID,0,VALID,23.9354,VALID,47,VALID,0.670703,
2012-01-17, 01:03:04,VALID,997.915,VALID,0,VALID,93.1653,VALID,0,VALID,23.914,VALID,47,VALID,0.621875,
2012-01-17, 01:04:04,VALID,997.898,VALID,0,VALID,93.1348,VALID,0,VALID,23.875,VALID,21,VALID,0.738281,
2012-01-17, 01:05:04,VALID,997.888,VALID,0,VALID,93.1882,VALID,0,VALID,23.8963,VALID,19,VALID,0.471094,
2012-01-17, 01:06:04,VALID,997.869,VALID,0,VALID,93.234,VALID,0,VALID,23.8963,VALID,19,VALID,0.654297,
2012-01-17, 01:07:04,VALID,997.834,VALID,0,VALID,93.3103,VALID,0,VALID,23.8963,VALID,19,VALID,0.421484,
2012-01-17, 01:08:04,VALID,997.841,VALID,0,VALID,93.356,VALID,0,VALID,23.9159,VALID,19,VALID,0.341406,
2012-01-17, 01:09:04,VALID,997.811,VALID,0,VALID,93.3484,VALID,0,VALID,23.9159,VALID,19,VALID,0,
2012-01-17, 01:10:04,VALID,997.783,VALID,0,VALID,93.356,VALID,0,VALID,23.875,VALID,19,VALID,0.259375,
2012-01-17, 01:11:04,VALID,997.784,VALID,0,VALID,93.3637,VALID,0,VALID,23.9159,VALID,19,VALID,0,
2012-01-17, 01:12:04,VALID,997.731,VALID,0,VALID,93.3408,VALID,0,VALID,23.8963,VALID,19,VALID,0,
2012-01-17, 01:13:04,VALID,997.763,VALID,0,VALID,93.3484,VALID,0,VALID,23.8963,VALID,19,VALID,0,
2012-01-17, 01:14:04,VALID,997.736,VALID,0,VALID,93.3331,VALID,0,VALID,23.8555,VALID,19,VALID,0,
2012-01-17, 01:15:04,VALID,997.715,VALID,0,VALID,93.3789,VALID,0,VALID,23.8768,VALID,19,VALID,0,
2012-01-17, 01:16:04,VALID,997.702,VALID,0,VALID,93.3866,VALID,0,VALID,23.8768,VALID,19,VALID,0,
2012-01-17, 01:17:04,VALID,997.711,VALID,0,VALID,93.3866,VALID,0,VALID,23.8768,VALID,19,VALID,0,
2012-01-17, 01:18:04,VALID,997.671,VALID,0,VALID,93.4247,VALID,0,VALID,23.8768,VALID,19,VALID,0,
2012-01-17, 01:19:04,VALID,997.69,VALID,0,VALID,93.4781,VALID,0,VALID,23.8963,VALID,19,VALID,0,
2012-01-17, 01:20:04,VALID,997.658,VALID,0,VALID,93.4552,VALID,0,VALID,23.875,VALID,19,VALID,0,
2012-01-17, 01:21:04,VALID,997.661,VALID,0,VALID,93.4705,VALID,0,VALID,23.8963,VALID,19,VALID,0,
2012-01-17, 01:22:04,VALID,997.636,VALID,0,VALID,93.44,VALID,0,VALID,23.9159,VALID,30,VALID,0,
2012-01-17, 01:23:04,VALID,997.62,VALID,0,VALID,93.3255,VALID,0,VALID,23.8555,VALID,44,VALID,0,
2012-01-17, 01:24:04,VALID,997.631,VALID,0,VALID,93.2492,VALID,0,VALID,23.8573,VALID,47,VALID,0,
2012-01-17, 01:25:04,VALID,997.614,VALID,0,VALID,93.2568,VALID,0,VALID,23.8378,VALID,47,VALID,0,
2012-01-17, 01:26:04,VALID,997.576,VALID,0,VALID,93.3179,VALID,0,VALID,23.8378,VALID,47,VALID,0,
2012-01-17, 01:27:04,VALID,997.581,VALID,0,VALID,93.3866,VALID,0,VALID,23.8165,VALID,47,VALID,0,
2012-01-17, 01:28:04,VALID,997.578,VALID,0,VALID,93.4018,VALID,0,VALID,23.8378,VALID,47,VALID,0,
2012-01-17, 01:29:04,VALID,997.57,VALID,0,VALID,93.356,VALID,0,VALID,23.797,VALID,47,VALID,0,
2012-01-17, 01:30:04,VALID,997.533,VALID,0,VALID,93.2721,VALID,0,VALID,23.7988,VALID,47,VALID,0,
2012-01-17, 01:31:04,VALID,997.545,VALID,0,VALID,93.1653,VALID,0,VALID,23.7402,VALID,47,VALID,0,
2012-01-17, 01:32:04,VALID,997.514,VALID,0,VALID,93.1119,VALID,0,VALID,23.7012,VALID,47,VALID,0,
2012-01-17, 01:33:04,VALID,997.528,VALID,0,VALID,93.0966,VALID,0,VALID,23.6622,VALID,47,VALID,0,
2012-01-17, 01:34:04,VALID,997.478,VALID,0,VALID,93.234,VALID,0,VALID,23.6427,VALID,47,VALID,0,
2012-01-17, 01:35:04,VALID,997.478,VALID,0,VALID,93.4094,VALID,0,VALID,23.6604,VALID,47,VALID,0,
2012-01-17, 01:36:04,VALID,997.479,VALID,0,VALID,93.4934,VALID,0,VALID,23.6604,VALID,47,VALID,0,
2012-01-17, 01:37:04,VALID,997.488,VALID,0,VALID,93.5163,VALID,0,VALID,23.6799,VALID,47,VALID,0,
2012-01-17, 01:38:04,VALID,997.482,VALID,0,VALID,93.4857,VALID,0,VALID,23.6622,VALID,47,VALID,0,
2012-01-17, 01:39:04,VALID,997.485,VALID,0,VALID,93.4323,VALID,0,VALID,23.6214,VALID,47,VALID,0,
2012-01-17, 01:40:04,VALID,997.461,VALID,0,VALID,93.3942,VALID,0,VALID,23.5823,VALID,47,VALID,0,
2012-01-17, 01:41:04,VALID,997.49,VALID,0,VALID,93.3637,VALID,0,VALID,23.5628,VALID,47,VALID,0,
2012-01-17, 01:42:04,VALID,997.507,VALID,0,VALID,93.3789,VALID,0,VALID,23.5451,VALID,47,VALID,0,
2012-01-17, 01:43:04,VALID,997.509,VALID,0,VALID,93.3866,VALID,0,VALID,23.5043,VALID,47,VALID,0,
2012-01-17, 01:44:04,VALID,997.518,VALID,0,VALID,93.4247,VALID,0.104696,VALID,23.4848,VALID,47,VALID,0,
2012-01-17, 01:45:04,VALID,997.512,VALID,0,VALID,93.4781,VALID,0,VALID,23.4653,VALID,47,VALID,0,
2012-01-17, 01:46:04,VALID,997.5,VALID,0,VALID,93.501,VALID,0.104696,VALID,23.4458,VALID,47,VALID,0,
2012-01-17, 01:47:04,VALID,997.487,VALID,0,VALID,93.6002,VALID,0,VALID,23.4671,VALID,47,VALID,0,
2012-01-17, 01:48:04,VALID,997.484,VALID,0,VALID,93.6688,VALID,0,VALID,23.4653,VALID,47,VALID,0,
2012-01-17, 01:49:04,VALID,997.467,VALID,0,VALID,93.6383,VALID,0,VALID,23.4653,VALID,44,VALID,0,
2012-01-17, 01:50:04,VALID,997.456,VALID,0,VALID,93.5849,VALID,0,VALID,23.4263,VALID,43,VALID,0,
2012-01-17, 01:51:04,VALID,997.466,VALID,0,VALID,93.5086,VALID,0,VALID,23.4067,VALID,43,VALID,0,
2012-01-17, 01:52:04,VALID,997.436,VALID,0,VALID,93.5391,VALID,0,VALID,23.4085,VALID,43,VALID,0,
2012-01-17, 01:53:04,VALID,997.441,VALID,0,VALID,93.5697,VALID,0,VALID,23.3482,VALID,43,VALID,0,
2012-01-17, 01:54:04,VALID,997.466,VALID,0,VALID,93.6002,VALID,0,VALID,23.3482,VALID,43,VALID,0,
2012-01-17, 01:55:04,VALID,997.453,VALID,0,VALID,93.6002,VALID,0,VALID,23.35,VALID,43,VALID,0,
2012-01-17, 01:56:04,VALID,997.461,VALID,0,VALID,93.6612,VALID,0,VALID,23.35,VALID,43,VALID,0,
2012-01-17, 01:57:04,VALID,997.429,VALID,0,VALID,93.7146,VALID,0,VALID,23.35,VALID,25,VALID,0,
2012-01-17, 01:58:04,VALID,997.444,VALID,0,VALID,93.8062,VALID,0,VALID,23.3677,VALID,25,VALID,0,
2012-01-17, 01:59:04,VALID,997.424,VALID,0,VALID,93.8672,VALID,0,VALID,23.4085,VALID,25,VALID,0,
2012-01-17, 02:00:04,VALID,997.417,VALID,0,VALID,93.8901,VALID,0,VALID,23.4067,VALID,25,VALID,0,
2012-01-17, 02:01:04,VALID,997.419,VALID,0,VALID,93.8901,VALID,0,VALID,23.428,VALID,25,VALID,0,
2012-01-17, 02:02:04,VALID,997.411,VALID,0,VALID,93.9283,VALID,0.104696,VALID,23.4263,VALID,25,VALID,0,
2012-01-17, 02:03:04,VALID,997.427,VALID,0,VALID,93.9893,VALID,0,VALID,23.4653,VALID,25,VALID,0,
2012-01-17, 02:04:04,VALID,997.447,VALID,0,VALID,94.0122,VALID,0,VALID,23.4848,VALID,25,VALID,0,
2012-01-17, 02:05:04,VALID,997.424,VALID,0,VALID,93.9588,VALID,0,VALID,23.4866,VALID,25,VALID,0,
2012-01-17, 02:06:04,VALID,997.419,VALID,0,VALID,93.9664,VALID,0,VALID,23.4848,VALID,25,VALID,0,
2012-01-17, 02:07:04,VALID,997.42,VALID,0,VALID,93.974,VALID,0,VALID,23.5043,VALID,25,VALID,0,
2012-01-17, 02:08:04,VALID,997.381,VALID,0,VALID,93.9817,VALID,0,VALID,23.5451,VALID,25,VALID,0,
2012-01-17, 02:09:04,VALID,997.401,VALID,0,VALID,93.9359,VALID,0.104696,VALID,23.5238,VALID,25,VALID,0,
2012-01-17, 02:10:04,VALID,997.41,VALID,0,VALID,93.9588,VALID,0.104696,VALID,23.5238,VALID,25,VALID,0,
2012-01-17, 02:11:04,VALID,997.378,VALID,0,VALID,93.9893,VALID,0,VALID,23.5628,VALID,25,VALID,0,
2012-01-17, 02:12:04,VALID,997.398,VALID,0,VALID,94.0122,VALID,0,VALID,23.6019,VALID,25,VALID,0,
2012-01-17, 02:13:04,VALID,997.36,VALID,0,VALID,93.974,VALID,0,VALID,23.5823,VALID,25,VALID,0,
2012-01-17, 02:14:04,VALID,997.377,VALID,0,VALID,93.8977,VALID,0.104696,VALID,23.5823,VALID,25,VALID,0,
2012-01-17, 02:15:04,VALID,997.371,VALID,0,VALID,93.8138,VALID,0,VALID,23.5433,VALID,25,VALID,0,
2012-01-17, 02:16:04,VALID,997.349,VALID,0,VALID,93.768,VALID,0,VALID,23.5451,VALID,25,VALID,0,
2012-01-17, 02:17:04,VALID,997.376,VALID,0,VALID,93.6688,VALID,0.104696,VALID,23.4653,VALID,25,VALID,0,
2012-01-17, 02:18:04,VALID,997.364,VALID,0,VALID,93.5849,VALID,0,VALID,23.4458,VALID,25,VALID,0,
2012-01-17, 02:19:04,VALID,997.335,VALID,0,VALID,93.5544,VALID,0,VALID,23.4067,VALID,31,VALID,0,
2012-01-17, 02:20:04,VALID,997.358,VALID,0,VALID,93.7223,VALID,0,VALID,23.4263,VALID,34,VALID,0,
2012-01-17, 02:21:04,VALID,997.391,VALID,0,VALID,93.7833,VALID,0,VALID,23.4475,VALID,35,VALID,0,
2012-01-17, 02:22:04,VALID,997.362,VALID,0,VALID,93.7985,VALID,0,VALID,23.4263,VALID,40,VALID,0,
2012-01-17, 02:23:04,VALID,997.336,VALID,0,VALID,93.8062,VALID,0,VALID,23.4067,VALID,40,VALID,0,
2012-01-17, 02:24:04,VALID,997.344,VALID,0,VALID,93.7833,VALID,0,VALID,23.428,VALID,40,VALID,0,
2012-01-17, 02:25:04,VALID,997.362,VALID,0,VALID,93.7451,VALID,0,VALID,23.4085,VALID,40,VALID,0,
2012-01-17, 02:26:04,VALID,997.356,VALID,0,VALID,93.7299,VALID,0,VALID,23.3482,VALID,40,VALID,0,
2012-01-17, 02:27:04,VALID,997.337,VALID,0,VALID,93.6994,VALID,0,VALID,23.35,VALID,40,VALID,0,
2012-01-17, 02:28:04,VALID,997.323,VALID,0,VALID,93.6994,VALID,0,VALID,23.311,VALID,40,VALID,0,
2012-01-17, 02:29:04,VALID,997.317,VALID,0,VALID,93.7604,VALID,0,VALID,23.3092,VALID,40,VALID,0,
2012-01-17, 02:30:04,VALID,997.295,VALID,0,VALID,93.852,VALID,0,VALID,23.3287,VALID,40,VALID,0,
2012-01-17, 02:31:04,VALID,997.279,VALID,0,VALID,93.8672,VALID,0,VALID,23.3287,VALID,40,VALID,0,
2012-01-17, 02:32:04,VALID,997.278,VALID,0,VALID,93.8367,VALID,0,VALID,23.2897,VALID,45,VALID,0,
2012-01-17, 02:33:04,VALID,997.271,VALID,0,VALID,93.8291,VALID,0,VALID,23.2719,VALID,51,VALID,0,
2012-01-17, 02:34:04,VALID,997.252,VALID,0,VALID,93.913,VALID,0,VALID,23.2915,VALID,57,VALID,0,
2012-01-17, 02:35:04,VALID,997.221,VALID,0,VALID,93.974,VALID,0,VALID,23.2915,VALID,60,VALID,0,
2012-01-17, 02:36:04,VALID,997.216,VALID,0,VALID,93.9893,VALID,0,VALID,23.3305,VALID,60,VALID,0,
2012-01-17, 02:37:04,VALID,997.222,VALID,0,VALID,93.974,VALID,0,VALID,23.2897,VALID,60,VALID,0,
2012-01-17, 02:38:04,VALID,997.202,VALID,0,VALID,93.9206,VALID,0,VALID,23.2719,VALID,60,VALID,0,
2012-01-17, 02:39:04,VALID,997.196,VALID,0,VALID,93.8367,VALID,0,VALID,23.2329,VALID,60,VALID,0,
2012-01-17, 02:40:04,VALID,997.193,VALID,0,VALID,93.8596,VALID,0,VALID,23.2524,VALID,60,VALID,0,
2012-01-17, 02:41:04,VALID,997.193,VALID,0,VALID,93.913,VALID,0,VALID,23.2524,VALID,60,VALID,0,
2012-01-17, 02:42:04,VALID,997.195,VALID,0,VALID,93.9359,VALID,0,VALID,23.2524,VALID,60,VALID,0,
2012-01-17, 02:43:04,VALID,997.17,VALID,0,VALID,93.9893,VALID,0,VALID,23.2915,VALID,60,VALID,0,
2012-01-17, 02:44:04,VALID,997.216,VALID,0,VALID,94.0198,VALID,0,VALID,23.2915,VALID,60,VALID,0,
2012-01-17, 02:45:04,VALID,997.172,VALID,0,VALID,93.9893,VALID,0,VALID,23.3305,VALID,60,VALID,0,
2012-01-17, 02:46:04,VALID,997.207,VALID,0,VALID,94.0351,VALID,0,VALID,23.311,VALID,60,VALID,0,
2012-01-17, 02:47:04,VALID,997.183,VALID,0,VALID,94.0656,VALID,0,VALID,23.3695,VALID,60,VALID,0,
2012-01-17, 02:48:04,VALID,997.161,VALID,0,VALID,94.0732,VALID,0,VALID,23.389,VALID,60,VALID,0,
2012-01-17, 02:49:04,VALID,997.136,VALID,0,VALID,94.0808,VALID,0,VALID,23.4085,VALID,60,VALID,0,
2012-01-17, 02:50:04,VALID,997.131,VALID,0,VALID,94.0427,VALID,0,VALID,23.3872,VALID,60,VALID,0,
2012-01-17, 02:51:04,VALID,997.12,VALID,0,VALID,93.9817,VALID,0,VALID,23.3482,VALID,59,VALID,0,
2012-01-17, 02:52:04,VALID,997.11,VALID,0,VALID,93.9283,VALID,0,VALID,23.3695,VALID,18,VALID,0,
2012-01-17, 02:53:04,VALID,997.155,VALID,0,VALID,93.9283,VALID,0,VALID,23.35,VALID,351,VALID,0,
2012-01-17, 02:54:04,VALID,997.128,VALID,0,VALID,93.9435,VALID,0,VALID,23.35,VALID,351,VALID,0,
2012-01-17, 02:55:04,VALID,997.126,VALID,0,VALID,93.9511,VALID,0,VALID,23.3695,VALID,351,VALID,0,
2012-01-17, 02:56:04,VALID,997.117,VALID,0,VALID,93.974,VALID,0,VALID,23.3695,VALID,351,VALID,0,
2012-01-17, 02:57:04,VALID,997.11,VALID,0,VALID,93.974,VALID,0,VALID,23.3695,VALID,72,VALID,0,
2012-01-17, 02:58:05,VALID,997.121,VALID,0,VALID,93.9511,VALID,0,VALID,23.3695,VALID,102,VALID,0,
2012-01-17, 02:59:05,VALID,997.13,VALID,0,VALID,93.9893,VALID,0,VALID,23.3695,VALID,102,VALID,0.514063,
2012-01-17, 03:00:05,VALID,997.152,VALID,0,VALID,93.9511,VALID,0,VALID,23.3695,VALID,102,VALID,0,
2012-01-17, 03:01:05,VALID,997.155,VALID,0,VALID,93.9206,VALID,0,VALID,23.35,VALID,102,VALID,0.202734,
2012-01-17, 03:02:05,VALID,997.179,VALID,0,VALID,93.9359,VALID,0.104696,VALID,23.3695,VALID,102,VALID,0,
2012-01-17, 03:03:05,VALID,997.162,VALID,0,VALID,93.9435,VALID,0,VALID,23.3695,VALID,102,VALID,0,
2012-01-17, 03:04:05,VALID,997.139,VALID,0,VALID,93.9283,VALID,0,VALID,23.3695,VALID,102,VALID,0,
2012-01-17, 03:05:05,VALID,997.162,VALID,0,VALID,93.9511,VALID,0,VALID,23.3695,VALID,102,VALID,0,
2012-01-17, 03:06:05,VALID,997.163,VALID,0,VALID,94.0274,VALID,0,VALID,23.389,VALID,96,VALID,0.869922,
2012-01-17, 03:07:05,VALID,997.142,VALID,0,VALID,94.0808,VALID,0,VALID,23.4475,VALID,74,VALID,0.848437,
2012-01-17, 03:08:05,VALID,997.16,VALID,0,VALID,94.0885,VALID,0,VALID,23.4866,VALID,74,VALID,0.857031,
2012-01-17, 03:09:05,VALID,997.154,VALID,0,VALID,94.0503,VALID,0,VALID,23.4866,VALID,74,VALID,0.550781,
2012-01-17, 03:10:05,VALID,997.196,VALID,0,VALID,93.9511,VALID,0,VALID,23.4475,VALID,28,VALID,0.751172,
2012-01-17, 03:11:05,VALID,997.199,VALID,0,VALID,93.8291,VALID,0,VALID,23.389,VALID,28,VALID,0.655859,
2012-01-17, 03:12:05,VALID,997.146,VALID,0,VALID,93.7223,VALID,0,VALID,23.3482,VALID,28,VALID,0.716016,
2012-01-17, 03:13:05,VALID,997.214,VALID,0,VALID,93.707,VALID,0,VALID,23.3305,VALID,29,VALID,0.710156,
2012-01-17, 03:14:05,VALID,997.165,VALID,0,VALID,93.707,VALID,0,VALID,23.2915,VALID,70,VALID,0.673828,
2012-01-17, 03:15:05,VALID,997.168,VALID,0,VALID,93.7299,VALID,0,VALID,23.2915,VALID,70,VALID,0.525391,
2012-01-17, 03:16:05,VALID,997.168,VALID,0,VALID,93.646,VALID,0,VALID,23.2329,VALID,70,VALID,0,
2012-01-17, 03:17:05,VALID,997.172,VALID,0,VALID,93.5773,VALID,0,VALID,23.1939,VALID,70,VALID,0,
2012-01-17, 03:18:05,VALID,997.154,VALID,0,VALID,93.562,VALID,0,VALID,23.1549,VALID,15,VALID,0,
2012-01-17, 03:19:05,VALID,997.174,VALID,0,VALID,93.6612,VALID,0,VALID,23.1549,VALID,15,VALID,0,
2012-01-17, 03:20:05,VALID,997.154,VALID,0,VALID,93.7451,VALID,0,VALID,23.1744,VALID,15,VALID,0,
2012-01-17, 03:21:05,VALID,997.195,VALID,0,VALID,93.8367,VALID,0,VALID,23.1939,VALID,343,VALID,0.447656,
2012-01-17, 03:22:05,VALID,997.208,VALID,0,VALID,93.9435,VALID,0,VALID,23.2329,VALID,63,VALID,0.640625,
2012-01-17, 03:23:05,VALID,997.214,VALID,0,VALID,94.0122,VALID,0,VALID,23.2719,VALID,88,VALID,1.06406,
2012-01-17, 03:24:05,VALID,997.235,VALID,0,VALID,94.0045,VALID,0,VALID,23.2897,VALID,93,VALID,0.900781,
2012-01-17, 03:25:05,VALID,997.24,VALID,0,VALID,93.9511,VALID,0,VALID,23.3287,VALID,86,VALID,1.13125,
2012-01-17, 03:26:05,VALID,997.213,VALID,0,VALID,93.8672,VALID,0,VALID,23.3695,VALID,87,VALID,1.7,
2012-01-17, 03:27:05,VALID,997.237,VALID,0,VALID,93.8062,VALID,0,VALID,23.3872,VALID,119,VALID,1.36367,
2012-01-17, 03:28:05,VALID,997.258,VALID,0,VALID,93.6841,VALID,0,VALID,23.4067,VALID,88,VALID,0.763281,
2012-01-17, 03:29:05,VALID,997.244,VALID,0,VALID,93.562,VALID,0,VALID,23.4475,VALID,92,VALID,0.386328,
2012-01-17, 03:30:05,VALID,997.283,VALID,0,VALID,93.4552,VALID,0,VALID,23.4263,VALID,92,VALID,0.135547,
2012-01-17, 03:31:05,VALID,997.29,VALID,0,VALID,93.4094,VALID,0,VALID,23.428,VALID,92,VALID,0,
2012-01-17, 03:32:05,VALID,997.258,VALID,0,VALID,93.3103,VALID,0,VALID,23.4085,VALID,92,VALID,0,
2012-01-17, 03:33:05,VALID,997.251,VALID,0,VALID,93.2721,VALID,0,VALID,23.3872,VALID,92,VALID,0,
2012-01-17, 03:34:05,VALID,997.248,VALID,0,VALID,93.234,VALID,0,VALID,23.3695,VALID,92,VALID,0,
2012-01-17, 03:35:05,VALID,997.241,VALID,0,VALID,93.2416,VALID,0,VALID,23.3695,VALID,92,VALID,0,
2012-01-17, 03:36:05,VALID,997.229,VALID,0,VALID,93.295,VALID,0,VALID,23.3695,VALID,92,VALID,0.319922,
2012-01-17, 03:37:05,VALID,997.251,VALID,0,VALID,93.3179,VALID,0,VALID,23.3695,VALID,92,VALID,0.367188,
2012-01-17, 03:38:05,VALID,997.224,VALID,0,VALID,93.295,VALID,0,VALID,23.35,VALID,92,VALID,0.460938,
2012-01-17, 03:39:05,VALID,997.25,VALID,0,VALID,93.2874,VALID,0,VALID,23.35,VALID,92,VALID,0.624219,
2012-01-17, 03:40:05,VALID,997.241,VALID,0,VALID,93.234,VALID,0,VALID,23.3305,VALID,92,VALID,0.468359,
2012-01-17, 03:41:05,VALID,997.226,VALID,0,VALID,93.1653,VALID,0,VALID,23.3305,VALID,92,VALID,0.458594,
2012-01-17, 03:42:05,VALID,997.234,VALID,0,VALID,93.1424,VALID,0,VALID,23.2915,VALID,92,VALID,0.449219,
2012-01-17, 03:43:05,VALID,997.26,VALID,0,VALID,93.1424,VALID,0,VALID,23.2719,VALID,92,VALID,0.509766,
2012-01-17, 03:44:05,VALID,997.255,VALID,0,VALID,93.0585,VALID,0,VALID,23.2117,VALID,72,VALID,0.810938,
2012-01-17, 03:45:05,VALID,997.296,VALID,0,VALID,93.1729,VALID,0,VALID,23.1939,VALID,72,VALID,0.589844,
2012-01-17, 03:46:05,VALID,997.33,VALID,0,VALID,93.356,VALID,0,VALID,23.1549,VALID,72,VALID,0.891406,
2012-01-17, 03:47:05,VALID,997.342,VALID,0,VALID,93.4705,VALID,0,VALID,23.1549,VALID,72,VALID,0.867188,
2012-01-17, 03:48:05,VALID,997.353,VALID,0,VALID,93.5315,VALID,0,VALID,23.1354,VALID,72,VALID,0.732813,
2012-01-17, 03:49:05,VALID,997.373,VALID,0,VALID,93.4857,VALID,0,VALID,23.0751,VALID,72,VALID,0.380469,
2012-01-17, 03:50:05,VALID,997.375,VALID,0,VALID,93.4628,VALID,0,VALID,23.0361,VALID,72,VALID,0.375,
2012-01-17, 03:51:05,VALID,997.386,VALID,0,VALID,93.501,VALID,0,VALID,23.0378,VALID,72,VALID,0.487109,
2012-01-17, 03:52:05,VALID,997.378,VALID,0,VALID,93.5773,VALID,0,VALID,23.0378,VALID,31,VALID,0.714844,
2012-01-17, 03:53:05,VALID,997.406,VALID,0,VALID,93.707,VALID,0,VALID,23.0361,VALID,28,VALID,0.811328,
2012-01-17, 03:54:05,VALID,997.43,VALID,0,VALID,93.7757,VALID,0,VALID,23.0573,VALID,28,VALID,0.692969,